| time (UTC) | temp F | wind direction | speed MPH | gust MPH | rain 1hr in | rain 24hr in | rain mn in | humidity % | barometer mb |
| 20260510060033 | 61 | 179 | 0.0 | 1.0 | 0.00 | 0.00 | 0.00 | 67 | 1013.5 |
| 20260510054523 | 64 | 176 | 0.0 | 0.0 | 0.00 | 0.00 | 0.00 | 62 | 1013.6 |
| 20260510053016 | 65 | 178 | 0.0 | 2.0 | 0.00 | 0.00 | 0.00 | 61 | 1013.5 |
| 20260510051516 | 65 | 178 | 1.0 | 3.0 | 0.00 | 0.00 | 0.00 | 60 | 1013.4 |
| 20260510050019 | 66 | 177 | 1.0 | 4.0 | 0.00 | 0.00 | 0.00 | 58 | 1013.4 |
| 20260510044514 | 66 | 176 | 3.0 | 6.0 | 0.00 | 0.00 | 0.00 | 56 | 1013.3 |
| 20260510043014 | 68 | 178 | 1.0 | 10.0 | 0.00 | 0.00 | 0.00 | 54 | 1013.3 |
| 20260510041513 | 68 | 178 | 3.0 | 9.0 | 0.00 | 0.00 | 0.00 | 53 | 1013.1 |
| 20260510040013 | 69 | 178 | 3.0 | 10.0 | 0.00 | 0.00 | 0.00 | 51 | 1012.8 |
| 20260510034520 | 69 | 178 | 3.0 | 11.0 | 0.00 | 0.00 | 0.00 | 48 | 1012.6 |
| 20260510033013 | 70 | 176 | 4.0 | 10.0 | 0.00 | 0.00 | 0.00 | 46 | 1012.6 |
| 20260510031514 | 71 | 178 | 1.0 | 7.0 | 0.00 | 0.00 | 0.00 | 47 | 1012.6 |
| 20260510030017 | 72 | 178 | 3.0 | 7.0 | 0.00 | 0.00 | 0.00 | 45 | 1012.6 |
| 20260510024510 | 73 | 178 | 0.0 | 1.0 | 0.00 | 0.00 | 0.00 | 43 | 1012.3 |
| 20260510023009 | 74 | 178 | 0.0 | 0.0 | 0.00 | 0.00 | 0.00 | 35 | 1012.3 |
| 20260510021507 | 75 | 177 | 0.0 | 0.0 | 0.00 | 0.00 | 0.00 | 34 | 1012.3 |
| 20260510020006 | 75 | 178 | 1.0 | 2.0 | 0.00 | 0.00 | 0.00 | 34 | 1012.4 |
| 20260510014507 | 76 | 179 | 0.0 | 0.0 | 0.00 | 0.00 | 0.00 | 30 | 1012.5 |
| 20260510013007 | 76 | 179 | 1.0 | 3.0 | 0.00 | 0.00 | 0.00 | 28 | 1012.7 |
| 20260510011506 | 78 | 178 | 0.0 | 2.0 | 0.00 | 0.00 | 0.00 | 28 | 1012.7 |
| 20260510010001 | 78 | 179 | 2.0 | 6.0 | 0.00 | 0.00 | 0.00 | 29 | 1012.9 |
| 20260510004600 | 77 | 178 | 4.0 | 7.0 | 0.00 | 0.00 | 0.00 | 30 | 1012.9 |
| 20260510003101 | 76 | 149 | 1.0 | 5.0 | 0.00 | 0.00 | 0.00 | 29 | 1012.9 |
| 20260510001557 | 77 | 149 | 2.0 | 7.0 | 0.00 | 0.00 | 0.00 | 28 | 1013.2 |
| 20260510000055 | 77 | 153 | 3.0 | 6.0 | 0.00 | 0.00 | 0.00 | 28 | 1013.2 |
| 20260509234555 | 77 | 177 | 4.0 | 8.0 | 0.00 | 0.00 | 0.00 | 28 | 1013.2 |
| 20260509233051 | 79 | 177 | 2.0 | 7.0 | 0.00 | 0.00 | 0.00 | 26 | 1013.4 |
| 20260509231550 | 78 | 176 | 3.0 | 7.0 | 0.00 | 0.00 | 0.00 | 28 | 1013.4 |
| 20260509230050 | 78 | 170 | 4.0 | 8.0 | 0.00 | 0.00 | 0.00 | 28 | 1013.7 |
| 20260509224545 | 78 | 179 | 5.0 | 9.0 | 0.00 | 0.00 | 0.00 | 24 | 1013.9 |
| 20260509223042 | 77 | 176 | 3.0 | 11.0 | 0.00 | 0.00 | 0.00 | 28 | 1014.2 |
| 20260509221539 | 78 | 176 | 3.0 | 8.0 | 0.00 | 0.00 | 0.00 | 35 | 1014.5 |
| 20260509220038 | 77 | 177 | 1.0 | 6.0 | 0.00 | 0.00 | 0.00 | 37 | 1014.9 |
| 20260509214532 | 76 | 177 | 3.0 | 6.0 | 0.00 | 0.00 | 0.00 | 38 | 1015.2 |
| 20260509213030 | 75 | 177 | 2.0 | 6.0 | 0.00 | 0.00 | 0.00 | 39 | 1015.4 |
| 20260509211527 | 73 | 178 | 1.0 | 9.0 | 0.00 | 0.00 | 0.00 | 41 | 1015.6 |
| 20260509210026 | 72 | 178 | 3.0 | 7.0 | 0.00 | 0.00 | 0.00 | 38 | 1015.7 |
| 20260509204523 | 73 | 177 | 0.0 | 6.0 | 0.00 | 0.00 | 0.00 | 39 | 1015.8 |
| 20260509203029 | 71 | 179 | 3.0 | 8.0 | 0.00 | 0.00 | 0.00 | 41 | 1015.9 |
| 20260509201518 | 71 | 176 | 2.0 | 6.0 | 0.00 | 0.00 | 0.00 | 45 | 1016.1 |
| 20260509200013 | 68 | 178 | 4.0 | 10.0 | 0.00 | 0.00 | 0.00 | 51 | 1016.4 |
| 20260509194513 | 68 | 178 | 5.0 | 11.0 | 0.00 | 0.00 | 0.00 | 51 | 1016.6 |
| 20260509193008 | 67 | 179 | 3.0 | 13.0 | 0.00 | 0.00 | 0.00 | 57 | 1016.9 |
| 20260509191508 | 66 | 176 | 8.0 | 14.0 | 0.00 | 0.00 | 0.00 | 60 | 1017.0 |
| 20260509190003 | 65 | 178 | 8.0 | 14.0 | 0.00 | 0.00 | 0.00 | 60 | 1017.1 |
| 20260509184558 | 65 | 178 | 5.0 | 12.0 | 0.00 | 0.00 | 0.00 | 63 | 1017.4 |
| 20260509183103 | 65 | 177 | 6.0 | 13.0 | 0.00 | 0.00 | 0.00 | 63 | 1017.5 |
| 20260509181601 | 64 | 178 | 2.0 | 7.0 | 0.00 | 0.00 | 0.00 | 64 | 1017.6 |
| 20260509180053 | 63 | 179 | 2.0 | 10.0 | 0.00 | 0.00 | 0.00 | 67 | 1017.8 |
| 20260509174550 | 62 | 178 | 6.0 | 9.0 | 0.00 | 0.00 | 0.00 | 67 | 1017.8 |
| 20260509173049 | 62 | 178 | 3.0 | 7.0 | 0.00 | 0.00 | 0.00 | 68 | 1017.8 |
| 20260509171549 | 61 | 178 | 3.0 | 6.0 | 0.00 | 0.00 | 0.00 | 71 | 1018.1 |
| 20260509170049 | 61 | 177 | 3.0 | 6.0 | 0.00 | 0.00 | 0.00 | 69 | 1018.2 |
| 20260509164543 | 60 | 178 | 1.0 | 7.0 | 0.00 | 0.00 | 0.00 | 75 | 1018.4 |
| 20260509163038 | 59 | 177 | 3.0 | 8.0 | 0.00 | 0.00 | 0.00 | 76 | 1018.3 |
| 20260509161536 | 58 | 176 | 2.0 | 6.0 | 0.00 | 0.00 | 0.00 | 76 | 1018.7 |
| 20260509160037 | 58 | 178 | 0.0 | 7.0 | 0.00 | 0.00 | 0.00 | 78 | 1019.0 |
| 20260509154527 | 55 | 178 | 1.0 | 4.0 | 0.00 | 0.00 | 0.00 | 84 | 1019.0 |
| 20260509153033 | 54 | 177 | 2.0 | 3.0 | 0.00 | 0.00 | 0.00 | 87 | 1019.0 |
| 20260509151525 | 53 | 178 | 0.0 | 3.0 | 0.00 | 0.00 | 0.00 | 87 | 1019.1 |
| 20260509150024 | 53 | 178 | 0.0 | 1.0 | 0.00 | 0.00 | 0.00 | 88 | 1019.3 |
| 20260509144528 | 51 | 177 | 0.0 | 0.0 | 0.00 | 0.00 | 0.00 | 90 | 1019.4 |
| 20260509143024 | 50 | 177 | 0.0 | 2.0 | 0.00 | 0.00 | 0.00 | 90 | 1019.3 |
| 20260509141523 | 50 | 150 | 0.0 | 1.0 | 0.00 | 0.00 | 0.00 | 91 | 1019.1 |
| 20260509140021 | 49 | 148 | 0.0 | 4.0 | 0.00 | 0.00 | 0.00 | 93 | 1019.1 |
| 20260509134520 | 0 | 0.0 | 0.0 | 0.00 | 0.00 | 0.00 | 1018.9 | ||
| 20260509133015 | 0 | 0.0 | 0.0 | 0.00 | 0.00 | 0.00 | 1019.0 | ||
| 20260509131513 | 0 | 0.0 | 0.0 | 0.00 | 0.00 | 0.00 | 1018.9 | ||
| 20260509130006 | 0 | 0.0 | 0.0 | 0.00 | 0.00 | 0.00 | 1018.9 | ||
| 20260509124502 | 0 | 0.0 | 0.0 | 0.00 | 0.00 | 0.00 | 1018.9 | ||
| 20260509123100 | 46 | 180 | 0.0 | 1.0 | 0.00 | 0.00 | 0.00 | 92 | 1018.8 |
| 20260509121607 | 48 | 176 | 0.0 | 0.0 | 0.00 | 0.00 | 0.00 | 92 | 1019.1 |
| 20260509120112 | 49 | 172 | 0.0 | 1.0 | 0.00 | 0.00 | 0.00 | 91 | 1019.3 |
| 20260509114553 | 49 | 176 | 0.0 | 0.0 | 0.00 | 0.00 | 0.00 | 91 | 1019.1 |
| 20260509113055 | 49 | 176 | 0.0 | 1.0 | 0.00 | 0.00 | 0.00 | 91 | 1019.1 |
| 20260509111551 | 49 | 176 | 0.0 | 3.0 | 0.00 | 0.00 | 0.00 | 91 | 1019.1 |
| 20260509110053 | 49 | 178 | 0.0 | 2.0 | 0.00 | 0.00 | 0.00 | 90 | 1019.4 |
| 20260509104547 | 50 | 179 | 1.0 | 3.0 | 0.00 | 0.00 | 0.00 | 91 | 1019.6 |
| 20260509103044 | 49 | 178 | 0.0 | 0.0 | 0.00 | 0.00 | 0.00 | 91 | 1019.8 |
| 20260509101552 | 50 | 177 | 0.0 | 2.0 | 0.00 | 0.00 | 0.00 | 90 | 1019.8 |
| 20260509100044 | 50 | 178 | 3.0 | 4.0 | 0.00 | 0.00 | 0.00 | 90 | 1019.8 |
| 20260509094539 | 50 | 178 | 2.0 | 5.0 | 0.00 | 0.00 | 0.00 | 90 | 1019.9 |
| 20260509093036 | 50 | 178 | 1.0 | 3.0 | 0.00 | 0.00 | 0.00 | 89 | 1019.8 |
| 20260509091536 | 51 | 178 | 2.0 | 4.0 | 0.00 | 0.00 | 0.00 | 88 | 1020.0 |
| 20260509090032 | 52 | 177 | 2.0 | 5.0 | 0.00 | 0.00 | 0.00 | 86 | 1020.0 |
| 20260509084530 | 53 | 177 | 1.0 | 3.0 | 0.00 | 0.00 | 0.00 | 85 | 1020.0 |
| 20260509083026 | 53 | 177 | 1.0 | 7.0 | 0.00 | 0.00 | 0.00 | 84 | 1020.2 |
| 20260509081525 | 54 | 177 | 3.0 | 8.0 | 0.00 | 0.00 | 0.00 | 83 | 1020.2 |
| 20260509080021 | 54 | 177 | 4.0 | 10.0 | 0.00 | 0.00 | 0.00 | 82 | 1020.3 |
| 20260509074520 | 54 | 156 | 2.0 | 9.0 | 0.00 | 0.00 | 0.00 | 82 | 1020.4 |
| 20260509073028 | 54 | 179 | 3.0 | 8.0 | 0.00 | 0.00 | 0.00 | 82 | 1020.5 |
| 20260509071515 | 54 | 154 | 2.0 | 8.0 | 0.00 | 0.00 | 0.00 | 82 | 1020.5 |
| 20260509070013 | 55 | 153 | 1.0 | 6.0 | 0.00 | 0.00 | 0.00 | 80 | 1020.4 |
| 20260509064512 | 55 | 178 | 2.0 | 9.0 | 0.00 | 0.00 | 0.00 | 80 | 1020.4 |
| 20260509063014 | 55 | 177 | 2.0 | 8.0 | 0.00 | 0.00 | 0.00 | 79 | 1020.4 |
| 20260509061509 | 56 | 177 | 1.0 | 5.0 | 0.00 | 0.00 | 0.00 | 77 | 1020.4 |